TimeEST,TemperatureF,Dew PointF,Humidity,Sea Level PressureIn,VisibilityMPH,Wind Direction,Wind SpeedMPH,Gust SpeedMPH,PrecipitationIn,Events,Conditions,WindDirDegrees,DateUTC
12:55 AM,33.1,21.9,64,29.88,10.0,ESE,9.2,-,N/A,,Overcast,110,2013-12-03 05:55:00
1:55 AM,34.0,21.0,59,29.87,10.0,East,8.1,-,N/A,,Overcast,100,2013-12-03 06:55:00
2:55 AM,34.0,21.9,61,29.87,10.0,East,10.4,-,N/A,,Overcast,100,2013-12-03 07:55:00
3:15 AM,33.8,23.0,65,29.84,3.0,East,13.8,-,0.00,Snow,Light Snow,100,2013-12-03 08:15:00
3:30 AM,33.8,24.8,70,29.84,2.5,East,12.7,-,0.00,Snow,Light Snow,100,2013-12-03 08:30:00
3:45 AM,32.0,24.8,75,29.84,6.0,East,11.5,-,0.00,Snow,Light Snow,100,2013-12-03 08:45:00
3:55 AM,33.1,24.1,70,29.85,9.0,East,13.8,-,0.00,,Overcast,100,2013-12-03 08:55:00
4:37 AM,32.0,24.8,75,29.81,9.0,ESE,15.0,23.0,0.00,Snow,Light Snow,110,2013-12-03 09:37:00
4:55 AM,32.0,25.0,75,29.83,6.0,ESE,13.8,23.0,0.00,,Overcast,110,2013-12-03 09:55:00
5:55 AM,33.1,26.1,75,29.82,10.0,East,15.0,-,0.00,,Overcast,100,2013-12-03 10:55:00
6:55 AM,32.0,27.0,82,29.83,7.0,ESE,15.0,-,N/A,,Overcast,110,2013-12-03 11:55:00
7:20 AM,32.0,26.6,80,29.80,5.0,ESE,15.0,21.9,N/A,,Haze,110,2013-12-03 12:20:00
7:39 AM,32.0,28.4,87,29.80,5.0,ESE,17.3,23.0,0.00,,Light Freezing Drizzle,110,2013-12-03 12:39:00
7:55 AM,32.0,28.0,85,29.83,5.0,East,12.7,-,0.00,,Light Freezing Drizzle,90,2013-12-03 12:55:00
8:31 AM,33.8,28.4,81,29.80,6.0,East,10.4,-,0.00,,Overcast,100,2013-12-03 13:31:00
8:55 AM,33.1,28.9,85,29.84,6.0,East,11.5,-,0.00,,Overcast,100,2013-12-03 13:55:00
9:55 AM,33.1,28.9,85,29.84,3.0,East,12.7,-,0.00,,Light Drizzle,100,2013-12-03 14:55:00
10:04 AM,33.8,28.4,81,29.81,2.5,East,11.5,-,0.00,,Light Drizzle,100,2013-12-03 15:04:00
10:27 AM,33.8,30.2,87,29.81,2.5,ESE,12.7,-,0.00,,Light Drizzle,110,2013-12-03 15:27:00
10:55 AM,34.0,30.0,85,29.85,2.5,ESE,12.7,-,0.00,,Light Drizzle,110,2013-12-03 15:55:00
11:17 AM,33.8,30.2,87,29.82,3.0,ESE,10.4,20.7,0.00,Rain,Light Rain,110,2013-12-03 16:17:00
11:44 AM,33.8,30.2,87,29.81,3.0,ESE,11.5,-,0.00,Rain,Light Rain,110,2013-12-03 16:44:00
11:55 AM,34.0,30.0,85,29.83,4.0,ESE,12.7,-,0.00,Rain,Light Rain,110,2013-12-03 16:55:00
12:08 PM,33.8,30.2,87,29.81,4.0,East,10.4,-,0.01,Rain,Light Rain,100,2013-12-03 17:08:00
12:55 PM,35.1,30.9,85,29.82,3.0,East,10.4,-,0.01,Rain,Light Rain,100,2013-12-03 17:55:00
1:55 PM,35.1,32.0,89,29.80,5.0,East,9.2,-,0.00,Rain,Light Rain,80,2013-12-03 18:55:00
2:55 PM,35.1,30.9,85,29.79,6.0,East,10.4,-,N/A,,Overcast,80,2013-12-03 19:55:00
3:55 PM,35.1,30.9,85,29.81,3.0,East,8.1,-,0.04,Rain,Rain,80,2013-12-03 20:55:00
4:02 PM,35.6,32.0,87,29.79,2.0,East,9.2,-,0.03,Rain,Rain,90,2013-12-03 21:02:00
4:09 PM,35.6,32.0,87,29.78,1.8,East,11.5,-,0.06,Rain,Rain,80,2013-12-03 21:09:00
4:40 PM,35.6,32.0,87,29.77,3.0,East,10.4,-,0.18,Rain,Light Rain,90,2013-12-03 21:40:00
4:52 PM,35.6,32.0,87,29.77,2.0,East,9.2,-,0.18,Rain,Light Rain,100,2013-12-03 21:52:00
4:55 PM,35.1,32.0,89,29.80,2.5,East,9.2,-,0.18,Rain,Light Rain,100,2013-12-03 21:55:00
5:55 PM,36.0,32.0,86,29.79,2.5,ESE,10.4,-,0.00,Rain,Light Rain,110,2013-12-03 22:55:00
6:11 PM,35.6,32.0,87,29.77,10.0,East,10.4,-,0.00,,Overcast,90,2013-12-03 23:11:00
6:55 PM,35.1,32.0,89,29.79,8.0,East,8.1,-,0.00,Rain,Light Rain,90,2013-12-03 23:55:00
7:55 PM,36.0,32.0,86,29.80,5.0,ESE,5.8,-,0.03,Rain,Light Rain,120,2013-12-04 00:55:00
8:55 PM,36.0,33.1,89,29.80,6.0,East,8.1,-,0.08,Rain,Light Rain,100,2013-12-04 01:55:00
9:55 PM,36.0,33.1,89,29.81,6.0,ESE,9.2,-,0.05,Rain,Light Rain,110,2013-12-04 02:55:00
10:55 PM,36.0,34.0,93,29.81,4.0,ESE,10.4,-,0.01,Rain,Light Rain,120,2013-12-04 03:55:00
11:15 PM,35.6,33.8,93,29.79,3.0,ESE,6.9,-,0.00,,Overcast,110,2013-12-04 04:15:00
11:23 PM,35.6,33.8,93,29.79,2.5,East,8.1,-,0.00,,Overcast,100,2013-12-04 04:23:00
11:42 PM,35.6,33.8,93,29.79,3.0,ESE,9.2,-,0.00,,Overcast,110,2013-12-04 04:42:00
11:55 PM,36.0,34.0,93,29.80,4.0,East,11.5,-,0.00,,Overcast,100,2013-12-04 04:55:00